MESHBED (44806 NORAD) Tracking and Keplerian Element Data

This shows tracking and keplerian element data for the satellite.

Feedback or suggestion? Click here.




ElementValue
Catalog44806
NameMESHBED
Epoch Orbit863
Epoch Day23.11524088
Epoch Year2020
RAAN84.8927
Inclination97.5154
Eccentricity0.0015532
Argument of Perigee51.4087
Mean Anonmoly308.8536
Mean Motion15.19214598
Decay Rate1.075E-05
L11 44806U 19081C 20023.11524088 .00001075 00000-0 54253-4 0 9993
L22 44806 97.5154 84.8927 0015532 51.4087 308.8536 15.19214598 8639

Live tracking and technical data element details for MESHBED (NORAD 44806). MESHBED can be tracked NOW for your location showing map with azimuth and elevation plus other details from your city location.

Track the satellite on the map from your city or location and see movement details for azimuth, elevation, latitude, longitude, range, height, and movement on the map or in text.







IsCatalogInMostPopularTable: catalog: 44806, numindb: 6
Update: records affected: 1



GetName: 44806 MESHBED

Hit Count: updated at: Fri, 24 Jan 2020 10:26:35 GMT